パンスターズ彗星

P/2016 A3 ( PanSTARRS )

English version
Home page
Updated on March 5, 2020

---------------------------------------------------------------------

・ プロフィール

発見日 2016年1月4日
発見光度 20.5等
発見者 Pan-STARRS 1 telescope (Haleakala)

・ 写真集

・ 軌道要素

Epoch 2017 Mar. 28.0 TT = JDT 2457840.5                                         
T 2017 Apr. 13.59563 TT                                 Williams                
q   4.7894919            (2000.0)            P               Q                  
n   0.04592767     Peri.  338.47197     -0.97085115     -0.23882492             
a   7.7224141      Node   187.79440     +0.23588475     -0.93705064             
e   0.3797934      Incl.    8.59397     +0.04250201     -0.25475236             
P  21.5                                                                         
From 134 observations 2016 Jan. 4-2019 May 25, mean residual 0".4.              

・ 光度変化

        m1 = 2.0 + 5 logΔ + 20.0 log r

---------------------------------------------------------------------

軌道要素はM.P.E.C. 2019-T169に掲載されたものです。
光度グラフはComet for Windowsで作成したものです。

---------------------------------------------------------------------

Copyright(C) Seiichi Yoshida (comet@aerith.net). All rights reserved.